Weather History for Kendall, FL

Change the Weather History Date:

Friday, November 4, 2011

  Actual Average Record
Temperature  
Mean Temperature 74 °F -  
Max Temperature 82 °F 83 °F 89 °F (1992)
Min Temperature 63 °F 64 °F 57 °F (1999)
Cooling Degree Days 9    
Growing Degree Days 24 (Base 50)    
Moisture  
Dew Point 63 °F    
Average Humidity 74    
Maximum Humidity 93    
Minimum Humidity 51    
Precipitation  
Precipitation 0.00 in - - ()
Sea Level Pressure  
Sea Level Pressure 29.92 in    
Wind  
Wind Speed 4 mph (WNW)    
Max Wind Speed 15 mph    
Max Gust Speed 20 mph    
Visibility 6 miles    
Events Fog    
Averages and records for this station are not official NWS values.
T = Trace of Precipitation, MM = Missing Value Source: NWS Daily Summary

Daily Weather History Graph

Daily Weather History Graph

Search for Another Location

Airport:

Trip Planner

Search our weather history database for the weather conditions in past years. The results will help you decide how hot, cold, wet, or windy it might be!

Date:

Astronomy

Nov. 04, 2011 Rise Set
Actual Time 7:31 AM EDT 6:38 PM EDT
Civil Twilight 7:07 AM EDT 7:02 PM EDT
Nautical Twilight 6:40 AM EDT 7:29 PM EDT
Astronomical Twilight 6:13 AM EDT 7:56 PM EDT
Moon 3:00 PM EDT (11/4) 2:15 AM EDT (11/4)
Length of Visible Light 11h 54m
Length of Day
11h 06m
Waxing Gibbous, 69% of the Moon is Illuminated
Nov 4
Waxing Gibbous
Nov 10
Full
Nov 18
Last Quarter
Nov 25
New
Dec 2
First Quarter

Hourly Weather History & Observations

Time (EDT) Temp. Heat Index Dew Point Humidity Pressure Visibility Wind Dir Wind Speed Gust Speed Precip Events Conditions
12:53 AM 68.0 °F - 64.9 °F 90% 29.97 in 10.0 mi West 3.5 mph - N/A   Scattered Clouds
1:53 AM 66.9 °F - 64.9 °F 93% 29.96 in 10.0 mi Calm Calm - N/A   Clear
2:53 AM 66.9 °F - 64.9 °F 93% 29.94 in 10.0 mi WNW 4.6 mph - N/A   Mostly Cloudy
3:53 AM 69.1 °F - 66.9 °F 93% 29.93 in 9.0 mi Calm Calm - N/A   Scattered Clouds
4:53 AM - - - N/A% 29.93 in 7.0 mi West 3.5 mph - N/A   Clear
5:08 AM - - - N/A% 29.92 in 1.8 mi West 3.5 mph - N/A   Clear
5:17 AM - - - N/A% 29.92 in 3.0 mi Calm Calm - N/A   Clear
5:43 AM - - - N/A% 29.92 in 1.8 mi Calm Calm - N/A   Clear
5:53 AM - - - N/A% 29.93 in 0.5 mi Calm Calm - N/A Fog Fog
6:01 AM - - - N/A% 29.92 in 1.2 mi Calm Calm - N/A   Scattered Clouds
6:03 AM - - - N/A% 29.92 in 0.8 mi Calm Calm - N/A   Mostly Cloudy
6:15 AM - - - N/A% 29.93 in 0.2 mi Calm Calm - N/A Fog Fog
6:25 AM - - - N/A% 29.92 in 0.5 mi Calm Calm - N/A Fog Fog
6:42 AM - - - N/A% 29.93 in 1.2 mi Calm Calm - N/A   Overcast
6:51 AM - - - N/A% 29.93 in 3.0 mi Calm Calm - N/A   Overcast
6:53 AM - - - N/A% 29.94 in 4.0 mi Calm Calm - N/A   Haze
7:09 AM - - - N/A% 29.92 in 8.0 mi Calm Calm - N/A   Partly Cloudy
7:41 AM - - - N/A% 29.93 in 1.5 mi West 3.5 mph - N/A   Scattered Clouds
7:43 AM - - - N/A% 29.93 in 0.5 mi West 3.5 mph - N/A Fog Fog
7:51 AM - - - N/A% 29.93 in 0.2 mi Calm Calm - N/A Fog Fog
7:53 AM - - - N/A% 29.94 in 0.2 mi Calm Calm - N/A Fog Fog
8:29 AM - - - N/A% 29.94 in 1.0 mi Calm Calm - N/A   Mist
8:37 AM - - - N/A% 29.94 in 0.8 mi Calm Calm - N/A   Mist
8:42 AM - - - N/A% 29.94 in 2.0 mi Calm Calm - N/A   Mostly Cloudy
8:47 AM - - - N/A% 29.94 in 3.0 mi Calm Calm - N/A   Clear
8:53 AM - - - N/A% 29.95 in 7.0 mi Calm Calm - N/A   Clear
9:00 AM - - - N/A% 29.94 in 9.0 mi Calm Calm - N/A   Partly Cloudy
9:53 AM 73.9 °F - 66.9 °F 79% 29.94 in 10.0 mi West 6.9 mph - N/A   Clear
10:53 AM 77.0 °F - 64.9 °F 66% 29.95 in 10.0 mi WNW 11.5 mph - N/A   Clear
11:53 AM 80.1 °F 81.7 °F 64.0 °F 58% 29.94 in 10.0 mi WNW 11.5 mph - N/A   Partly Cloudy
12:53 PM 82.0 °F 83.0 °F 62.1 °F 51% 29.91 in 10.0 mi West 11.5 mph - N/A   Clear
1:53 PM 82.0 °F 83.0 °F 62.1 °F 51% 29.88 in 10.0 mi West 15.0 mph 19.6 mph N/A   Clear
2:53 PM 81.0 °F 82.7 °F 64.9 °F 58% 29.86 in 10.0 mi West 13.8 mph - N/A   Mostly Cloudy
3:53 PM 81.0 °F 82.5 °F 64.0 °F 56% 29.84 in 10.0 mi West 12.7 mph - N/A   Scattered Clouds
4:53 PM 80.1 °F 81.7 °F 64.0 °F 58% 29.84 in 10.0 mi WNW 15.0 mph - N/A   Scattered Clouds
5:53 PM 78.1 °F - 64.9 °F 64% 29.84 in 10.0 mi West 13.8 mph - N/A   Partly Cloudy
6:53 PM 73.4 °F - 66.2 °F 78% 29.86 in 10.0 mi West 11.5 mph - N/A   Scattered Clouds
7:53 PM 73.4 °F - 64.4 °F 73% 29.87 in 10.0 mi WNW 13.8 mph - N/A   Mostly Cloudy
8:19 PM 71.6 °F - 64.4 °F 78% 29.88 in 10.0 mi WNW 12.7 mph - N/A   Mostly Cloudy
8:31 PM 69.8 °F - 64.4 °F 83% 29.89 in 10.0 mi WNW 11.5 mph - N/A   Scattered Clouds
8:53 PM 69.1 °F - 63.0 °F 81% 29.90 in 10.0 mi WNW 13.8 mph - N/A   Partly Cloudy
9:04 PM 69.8 °F - 62.6 °F 78% 29.90 in 10.0 mi WNW 15.0 mph - N/A   Mostly Cloudy
9:42 PM 66.2 °F - 62.6 °F 88% 29.91 in 10.0 mi WNW 8.1 mph - N/A   Scattered Clouds
9:53 PM 68.0 °F - 61.0 °F 78% 29.91 in 10.0 mi WNW 10.4 mph - N/A   Scattered Clouds
10:10 PM 66.2 °F - 60.8 °F 83% 29.91 in 10.0 mi NW 10.4 mph - N/A   Mostly Cloudy
10:19 PM 66.2 °F - 59.0 °F 78% 29.92 in 10.0 mi NNW 12.7 mph - N/A   Scattered Clouds
10:53 PM 66.0 °F - 57.0 °F 73% 29.93 in 10.0 mi NNW 12.7 mph - N/A   Clear
11:53 PM 63.0 °F - 55.0 °F 75% 29.95 in 10.0 mi NNW 15.0 mph - N/A   Clear